TimeCDT,TemperatureF,Dew PointF,Humidity,Sea Level PressureIn,VisibilityMPH,Wind Direction,Wind SpeedMPH,Gust SpeedMPH,PrecipitationIn,Events,Conditions,WindDirDegrees,DateUTC
12:53 AM,78.1,71.1,79,30.08,10.0,ESE,3.5,-,N/A,,Clear,120,2013-08-25 05:53:00
1:53 AM,78.1,71.1,79,30.08,10.0,ESE,5.8,-,N/A,,Clear,110,2013-08-25 06:53:00
2:53 AM,77.0,70.0,79,30.09,10.0,ESE,4.6,-,N/A,,Clear,120,2013-08-25 07:53:00
3:53 AM,75.9,70.0,82,30.10,10.0,SE,3.5,-,N/A,,Clear,130,2013-08-25 08:53:00
4:53 AM,75.9,70.0,82,30.12,10.0,SE,4.6,-,N/A,,Clear,140,2013-08-25 09:53:00
5:53 AM,73.9,70.0,87,30.14,10.0,ESE,3.5,-,N/A,,Clear,110,2013-08-25 10:53:00
6:53 AM,73.0,70.0,90,30.15,10.0,Calm,Calm,-,N/A,,Clear,0,2013-08-25 11:53:00
7:53 AM,75.0,71.1,87,30.16,10.0,NE,3.5,-,N/A,,Clear,50,2013-08-25 12:53:00
8:53 AM,78.1,71.1,79,30.18,10.0,ENE,3.5,-,N/A,,Clear,60,2013-08-25 13:53:00
9:53 AM,82.0,71.1,69,30.18,10.0,East,4.6,-,N/A,,Clear,80,2013-08-25 14:53:00
10:53 AM,84.9,69.1,59,30.18,10.0,East,3.5,-,N/A,,Clear,100,2013-08-25 15:53:00
11:53 AM,88.0,66.9,49,30.17,10.0,Variable,5.8,-,N/A,,Clear,0,2013-08-25 16:53:00
12:53 PM,91.0,66.9,45,30.15,10.0,Variable,5.8,-,N/A,,Clear,0,2013-08-25 17:53:00
1:17 PM,89.6,66.2,46,30.16,10.0,Variable,4.6,-,N/A,,Partly Cloudy,0,2013-08-25 18:17:00
1:53 PM,91.0,66.0,44,30.14,10.0,East,9.2,-,N/A,,Scattered Clouds,80,2013-08-25 18:53:00
2:53 PM,93.9,66.0,40,30.13,10.0,East,9.2,-,N/A,,Scattered Clouds,90,2013-08-25 19:53:00
3:53 PM,93.9,66.0,40,30.12,10.0,East,6.9,-,N/A,,Scattered Clouds,100,2013-08-25 20:53:00
4:53 PM,93.9,66.0,40,30.10,10.0,ENE,9.2,-,N/A,,Partly Cloudy,70,2013-08-25 21:53:00
5:53 PM,93.0,64.9,39,30.09,10.0,SE,9.2,-,N/A,,Clear,130,2013-08-25 22:53:00
6:53 PM,91.0,66.0,44,30.09,10.0,ESE,8.1,-,N/A,,Clear,120,2013-08-25 23:53:00
7:53 PM,87.1,66.0,49,30.09,10.0,ESE,3.5,-,N/A,,Clear,110,2013-08-26 00:53:00
8:53 PM,82.0,66.9,60,30.11,10.0,Calm,Calm,-,N/A,,Clear,0,2013-08-26 01:53:00
9:53 PM,79.0,66.9,66,30.14,10.0,Calm,Calm,-,N/A,,Clear,0,2013-08-26 02:53:00
10:53 PM,77.0,66.9,71,30.15,10.0,Calm,Calm,-,N/A,,Clear,0,2013-08-26 03:53:00
11:53 PM,80.1,68.0,67,30.16,10.0,ESE,4.6,-,N/A,,Clear,120,2013-08-26 04:53:00